| time (UTC) | temp F | wind direction | speed knots | gust knots | rain 1hr in | rain 24hr in | rain mn in | humidity % | barometer mb |
| 20260510164524 | 80 | 122 | 0.9 | 5.2 | 0.00 | 1.03 | 0.00 | 74 | 1016.9 |
| 20260510163026 | 80 | 47 | 1.7 | 6.1 | 0.00 | 1.04 | 0.00 | 74 | 1017.0 |
| 20260510161521 | 79 | 345 | 1.7 | 5.2 | 0.00 | 1.08 | 0.00 | 76 | 1017.0 |
| 20260510160025 | 79 | 65 | 1.7 | 4.3 | 0.00 | 1.13 | 0.00 | 80 | 1016.8 |
| 20260510154523 | 76 | 135 | 2.6 | 7.0 | 0.00 | 1.17 | 0.00 | 83 | 1016.6 |
| 20260510153022 | 75 | 105 | 2.6 | 6.1 | 0.00 | 1.24 | 0.00 | 87 | 1016.7 |
| 20260510151527 | 73 | 158 | 1.7 | 6.1 | 0.00 | 1.32 | 0.00 | 92 | 1016.7 |
| 20260510150012 | 72 | 78 | 2.6 | 5.2 | 0.00 | 1.45 | 0.00 | 94 | 1017.0 |
| 20260510144520 | 71 | 91 | 1.7 | 5.2 | 0.00 | 1.55 | 0.00 | 94 | 1017.0 |
| 20260510143024 | 71 | 117 | 3.5 | 5.2 | 0.00 | 1.65 | 0.00 | 95 | 1017.0 |
| 20260510141525 | 70 | 74 | 2.6 | 4.3 | 0.00 | 1.69 | 0.00 | 96 | 1017.1 |
| 20260510140009 | 69 | 71 | 1.7 | 5.2 | 0.00 | 1.71 | 0.00 | 97 | 1017.0 |
| 20260510134514 | 68 | 103 | 2.6 | 7.0 | 0.00 | 1.77 | 0.00 | 97 | 1016.7 |
| 20260510133018 | 68 | 99 | 2.6 | 4.3 | 0.00 | 1.83 | 0.00 | 98 | 1016.6 |
| 20260510131524 | 67 | 44 | 1.7 | 3.5 | 0.00 | 2.05 | 0.00 | 98 | 1016.4 |
| 20260510130008 | 66 | 71 | 2.6 | 5.2 | 0.00 | 2.39 | 0.00 | 98 | 1016.4 |
| 20260510124512 | 66 | 99 | 0.9 | 2.6 | 0.00 | 3.18 | 0.00 | 98 | 1016.2 |
| 20260510123016 | 66 | 94 | 0.9 | 3.5 | 0.00 | 3.18 | 0.00 | 98 | 1016.2 |
| 20260510121522 | 65 | 116 | 0.9 | 3.5 | 0.00 | 3.18 | 0.00 | 98 | 1016.0 |
| 20260510120026 | 65 | 108 | 1.7 | 4.3 | 0.00 | 3.18 | 0.00 | 98 | 1015.6 |
| 20260510114511 | 65 | 46 | 1.7 | 4.3 | 0.00 | 3.18 | 0.00 | 98 | 1015.2 |
| 20260510113013 | 65 | 87 | 2.6 | 4.3 | 0.00 | 3.18 | 0.00 | 98 | 1015.0 |
| 20260510111522 | 65 | 90 | 2.6 | 4.3 | 0.00 | 3.18 | 0.00 | 98 | 1014.5 |
| 20260510110033 | 65 | 101 | 0.9 | 1.7 | 0.00 | 3.18 | 0.00 | 98 | 1014.4 |
| 20260510104528 | 65 | 78 | 0.0 | 2.6 | 0.00 | 3.18 | 0.00 | 98 | 1014.1 |
| 20260510103010 | 65 | 53 | 0.9 | 3.5 | 0.00 | 3.18 | 0.00 | 98 | 1013.7 |
| 20260510101516 | 65 | 115 | 1.7 | 2.6 | 0.00 | 3.18 | 0.00 | 98 | 1013.5 |
| 20260510100030 | 65 | 80 | 0.0 | 2.6 | 0.00 | 3.18 | 0.00 | 98 | 1013.6 |
| 20260510094532 | 65 | 38 | 0.9 | 1.7 | 0.00 | 3.18 | 0.00 | 98 | 1013.5 |
| 20260510093026 | 65 | 355 | 0.9 | 4.3 | 0.00 | 3.19 | 0.00 | 98 | 1013.4 |
| 20260510091513 | 65 | 27 | 1.7 | 4.3 | 0.00 | 3.28 | 0.00 | 98 | 1013.4 |
| 20260510090020 | 65 | 333 | 1.7 | 5.2 | 0.00 | 4.19 | 0.00 | 98 | 1013.4 |
| 20260510084526 | 65 | 64 | 0.9 | 2.6 | 0.00 | 4.62 | 0.00 | 98 | 1013.3 |
| 20260510083026 | 66 | 102 | 0.0 | 2.6 | 0.00 | 4.62 | 0.00 | 98 | 1013.1 |
| 20260510081526 | 66 | 124 | 0.0 | 0.0 | 0.00 | 4.62 | 0.00 | 98 | 1013.0 |
| 20260510080017 | 66 | 110 | 0.0 | 0.0 | 0.00 | 4.62 | 0.00 | 98 | 1013.1 |
| 20260510074527 | 66 | 32 | 0.9 | 1.7 | 0.00 | 4.62 | 0.00 | 98 | 1013.1 |
| 20260510073025 | 66 | 75 | 1.7 | 2.6 | 0.00 | 4.62 | 0.00 | 98 | 1012.9 |
| 20260510071528 | 66 | 65 | 0.9 | 4.3 | 0.00 | 4.62 | 0.00 | 98 | 1012.9 |
| 20260510070033 | 66 | 349 | 3.5 | 4.3 | 0.00 | 4.62 | 0.00 | 98 | 1013.1 |
| 20260510064514 | 66 | 27 | 1.7 | 4.3 | 0.00 | 4.62 | 0.00 | 98 | 1013.0 |
| 20260510063024 | 67 | 45 | 0.0 | 1.7 | 0.00 | 4.62 | 0.00 | 98 | 1013.1 |
| 20260510061528 | 67 | 89 | 0.9 | 1.7 | 0.00 | 4.62 | 0.00 | 98 | 1013.1 |
| 20260510060032 | 67 | 114 | 0.0 | 2.6 | 0.00 | 4.62 | 0.00 | 98 | 1013.3 |
| 20260510054531 | 67 | 89 | 1.7 | 2.6 | 0.00 | 4.66 | 0.00 | 98 | 1013.0 |
| 20260510053019 | 67 | 32 | 0.0 | 1.7 | 0.00 | 4.67 | 0.00 | 98 | 1013.1 |
| 20260510051523 | 67 | 358 | 0.0 | 0.9 | 0.00 | 4.67 | 0.00 | 98 | 1013.3 |
| 20260510050028 | 67 | 357 | 0.9 | 1.7 | 0.00 | 4.67 | 0.00 | 98 | 1013.2 |
| 20260510044530 | 67 | 123 | 0.9 | 2.6 | 0.00 | 4.67 | 4.67 | 98 | 1013.1 |
| 20260510043030 | 67 | 150 | 0.9 | 1.7 | 0.00 | 4.67 | 4.67 | 98 | 1013.3 |
| 20260510041521 | 67 | 115 | 0.0 | 2.6 | 0.00 | 4.67 | 4.67 | 98 | 1013.1 |
| 20260510040004 | 68 | 119 | 1.7 | 1.7 | 0.00 | 4.67 | 4.67 | 98 | 1013.3 |
| 20260510034508 | 68 | 346 | 0.0 | 3.5 | 0.00 | 4.67 | 4.67 | 98 | 1013.7 |
| 20260510033013 | 68 | 354 | 0.9 | 1.7 | 0.00 | 4.67 | 4.67 | 98 | 1013.8 |
| 20260510031526 | 68 | 23 | 0.9 | 2.6 | 0.00 | 4.67 | 4.67 | 98 | 1013.6 |
| 20260510030023 | 68 | 131 | 0.9 | 1.7 | 0.00 | 4.67 | 4.67 | 98 | 1013.4 |
| 20260510024504 | 68 | 300 | 0.0 | 0.9 | 0.00 | 4.67 | 4.67 | 98 | 1013.6 |
| 20260510023010 | 68 | 323 | 2.6 | 4.3 | 0.02 | 4.67 | 4.67 | 98 | 1013.6 |
| 20260510021522 | 68 | 175 | 0.9 | 2.6 | 0.05 | 4.67 | 4.67 | 98 | 1013.0 |
| 20260510020025 | 68 | 158 | 0.9 | 1.7 | 0.05 | 4.67 | 4.67 | 98 | 1012.4 |
| 20260510014524 | 68 | 148 | 0.0 | 5.2 | 0.05 | 4.67 | 4.67 | 98 | 1012.1 |
| 20260510013007 | 68 | 128 | 2.6 | 4.3 | 0.04 | 4.66 | 4.66 | 98 | 1012.4 |
| 20260510011510 | 68 | 318 | 1.7 | 4.3 | 0.01 | 4.63 | 4.63 | 98 | 1013.1 |
| 20260510010014 | 68 | 157 | 0.0 | 2.6 | 0.01 | 4.63 | 4.63 | 98 | 1012.5 |
| 20260510004519 | 68 | 148 | 0.9 | 1.7 | 0.02 | 4.63 | 4.63 | 98 | 1012.5 |
| 20260510003026 | 68 | 122 | 0.0 | 2.6 | 0.05 | 4.62 | 4.62 | 97 | 1012.4 |
| 20260510001518 | 68 | 123 | 0.0 | 4.3 | 0.05 | 4.66 | 4.62 | 97 | 1012.4 |
| 20260510000015 | 68 | 91 | 0.9 | 1.7 | 0.05 | 4.67 | 4.62 | 97 | 1012.6 |
| 20260509234517 | 68 | 117 | 0.9 | 0.9 | 0.05 | 4.67 | 4.61 | 97 | 1012.9 |
| 20260509233022 | 68 | 165 | 0.0 | 0.9 | 0.01 | 4.64 | 4.57 | 97 | 1013.0 |
| 20260509231525 | 68 | 312 | 0.9 | 0.9 | 0.01 | 4.65 | 4.57 | 97 | 1013.0 |
| 20260509230008 | 68 | 311 | 1.7 | 2.6 | 0.03 | 4.67 | 4.57 | 97 | 1012.8 |
| 20260509224518 | 68 | 102 | 0.0 | 1.7 | 0.02 | 4.69 | 4.56 | 97 | 1011.7 |
| 20260509223022 | 67 | 137 | 0.9 | 3.5 | 0.02 | 4.69 | 4.56 | 97 | 1011.5 |
| 20260509221526 | 67 | 75 | 0.9 | 3.5 | 0.02 | 4.69 | 4.56 | 97 | 1012.0 |
| 20260509220027 | 68 | 224 | 0.0 | 2.6 | 0.00 | 4.69 | 4.54 | 97 | 1012.5 |
| 20260509214513 | 68 | 218 | 0.9 | 2.6 | 0.00 | 4.69 | 4.54 | 97 | 1012.4 |
| 20260509213016 | 67 | 289 | 0.9 | 2.6 | 0.01 | 4.73 | 4.54 | 97 | 1011.6 |
| 20260509211526 | 67 | 147 | 0.9 | 4.3 | 0.02 | 4.79 | 4.54 | 97 | 1010.8 |
| 20260509210028 | 67 | 148 | 1.7 | 4.3 | 0.04 | 4.80 | 4.54 | 97 | 1010.9 |
| 20260509204518 | 67 | 101 | 3.5 | 6.1 | 0.07 | 4.82 | 4.54 | 97 | 1011.0 |
| 20260509203015 | 67 | 250 | 0.0 | 1.7 | 0.11 | 4.84 | 4.53 | 97 | 1012.3 |
| 20260509201520 | 67 | 287 | 1.7 | 3.5 | 0.17 | 4.94 | 4.52 | 97 | 1012.8 |
| 20260509200022 | 67 | 141 | 0.0 | 3.5 | 0.21 | 4.98 | 4.50 | 97 | 1012.3 |
| 20260509194536 | 67 | 150 | 0.9 | 3.5 | 0.28 | 4.98 | 4.46 | 98 | 1012.4 |
| 20260509193010 | 67 | 142 | 1.7 | 4.3 | 0.28 | 4.94 | 4.42 | 98 | 1012.9 |
| 20260509191518 | 67 | 201 | 0.0 | 1.7 | 0.26 | 4.87 | 4.35 | 98 | 1013.1 |
| 20260509190024 | 67 | 150 | 1.7 | 3.5 | 0.25 | 4.81 | 4.29 | 98 | 1012.7 |
| 20260509184532 | 67 | 134 | 0.0 | 2.6 | 0.18 | 4.71 | 4.19 | 98 | 1013.1 |
| 20260509183031 | 66 | 157 | 0.9 | 5.2 | 0.19 | 4.66 | 4.14 | 98 | 1012.8 |
| 20260509181513 | 66 | 119 | 2.6 | 8.7 | 0.24 | 4.61 | 4.09 | 98 | 1012.5 |
| 20260509180020 | 65 | 123 | 2.6 | 7.0 | 0.34 | 4.56 | 4.04 | 97 | 1012.8 |
| 20260509174524 | 65 | 141 | 1.7 | 4.3 | 0.36 | 4.53 | 4.01 | 97 | 1013.3 |
| 20260509173026 | 65 | 94 | 3.5 | 7.0 | 0.31 | 4.46 | 3.95 | 97 | 1013.2 |
| 20260509171526 | 65 | 143 | 5.2 | 8.7 | 0.25 | 4.37 | 3.85 | 97 | 1012.8 |
| 20260509170016 | 64 | 122 | 1.7 | 6.1 | 0.15 | 4.21 | 3.70 | 97 | 1013.6 |